Precipitable_Water
0.45 0.38 0.37 0.39 0.41 0.39 0.39 0.39 0.37 0.36 0.35 0.31 0.29 0.29 0.29 0.29 0.32 0.35 0.38 0.35 0.37 0.34 0.34 0.29 0.31 0.32 0.32 0.32 0.33 0.36 0.38 0.38 0.39 0.41 0.44 0.44 0.45 0.46 0.53 0.58 0.66 0.70 0.76 0.82 0.81 0.81 0.81 0.80 0.90 1.05 1.16 1.38 1.53 1.44 1.40 1.35 1.26 1.16 1.10 1.07 0.98 1.04 1.07 1.08 1.08 1.11 1.17 1.19 1.25 1.23 1.13 1.07 1.11 1.14 1.20 1.23 1.26 1.26 1.29 1.34 1.38 1.41 1.45 1.49 1.51 1.47
0.42 0.38 0.41 0.46 0.47 0.43 0.39 0.35 0.34 0.31 0.33 0.31 0.31 0.30 0.32 0.32 0.33 0.38 0.36 0.38 0.38 0.32 0.32 0.33 0.32 0.32 0.33 0.35 0.37 0.37 0.38 0.38 0.37 0.37 0.39 0.43 0.48 0.53 0.57 0.58 0.68 0.70 0.76 0.74 0.76 0.77 0.79 0.85 0.93 1.07 1.04 1.13 1.25 1.45 1.45 1.38 1.31 1.22 1.18 1.10 1.04 1.05 1.04 1.06 1.07 1.05 1.09 1.18 1.18 1.15 1.14 1.16 1.17 1.17 1.17 1.17 1.24 1.27 1.30 1.34 1.35 1.37 1.42 1.46 1.49 1.55
0.43 0.40 0.43 0.48 0.45 0.45 0.44 0.40 0.37 0.35 0.34 0.35 0.34 0.34 0.33 0.33 0.35 0.37 0.37 0.39 0.38 0.33 0.29 0.30 0.29 0.30 0.33 0.36 0.38 0.41 0.43 0.42 0.41 0.40 0.39 0.42 0.43 0.49 0.59 0.64 0.65 0.70 0.75 0.73 0.73 0.76 0.74 0.79 0.94 1.05 1.09 1.09 1.23 1.36 1.44 1.46 1.37 1.28 1.23 1.16 1.12 1.06 1.03 1.04 1.07 1.06 1.01 1.11 1.21 1.21 1.20 1.19 1.20 1.29 1.28 1.28 1.31 1.32 1.29 1.30 1.32 1.34 1.38 1.41 1.43 1.51
0.37 0.38 0.43 0.45 0.44 0.42 0.39 0.36 0.35 0.34 0.35 0.34 0.34 0.33 0.28 0.32 0.30 0.29 0.30 0.33 0.36 0.32 0.28 0.31 0.31 0.32 0.34 0.37 0.39 0.42 0.43 0.44 0.44 0.44 0.40 0.42 0.42 0.50 0.68 0.66 0.72 0.76 0.75 0.73 0.72 0.74 0.83 0.84 0.90 1.02 1.15 1.24 1.31 1.40 1.46 1.49 1.39 1.33 1.25 1.21 1.17 1.10 1.06 1.04 1.05 1.05 1.06 1.09 1.19 1.26 1.27 1.27 1.25 1.21 1.30 1.33 1.34 1.32 1.28 1.23 1.27 1.30 1.32 1.38 1.43 1.49
0.36 0.40 0.43 0.39 0.42 0.40 0.34 0.33 0.32 0.33 0.30 0.35 0.34 0.31 0.33 0.32 0.33 0.32 0.30 0.32 0.32 0.34 0.33 0.32 0.29 0.28 0.33 0.35 0.37 0.38 0.42 0.40 0.42 0.43 0.43 0.49 0.50 0.63 0.67 0.68 0.72 0.71 0.71 0.71 0.72 0.75 0.82 0.88 0.97 1.10 1.22 1.24 1.23 1.38 1.46 1.47 1.46 1.36 1.27 1.25 1.23 1.17 1.12 1.08 1.05 1.04 1.06 1.08 1.11 1.19 1.26 1.29 1.28 1.32 1.27 1.23 1.21 1.25 1.25 1.21 1.19 1.21 1.28 1.33 1.41 1.48
0.33 0.40 0.42 0.41 0.39 0.39 0.36 0.32 0.33 0.33 0.29 0.32 0.38 0.31 0.34 0.35 0.32 0.31 0.30 0.30 0.28 0.27 0.32 0.31 0.26 0.27 0.33 0.34 0.34 0.38 0.42 0.43 0.51 0.47 0.43 0.45 0.49 0.59 0.65 0.66 0.73 0.72 0.72 0.74 0.75 0.85 0.91 0.91 1.04 1.12 1.15 1.05 1.10 1.21 1.42 1.54 1.57 1.49 1.36 1.28 1.26 1.23 1.19 1.13 1.10 1.07 1.05 1.02 1.00 1.05 1.06 1.05 1.07 1.07 1.06 1.02 1.02 1.10 1.13 1.11 1.17 1.22 1.25 1.31 1.35 1.40
0.37 0.40 0.40 0.38 0.35 0.37 0.37 0.35 0.35 0.35 0.33 0.30 0.31 0.35 0.34 0.32 0.30 0.29 0.29 0.29 0.24 0.21 0.29 0.34 0.26 0.24 0.30 0.32 0.37 0.39 0.40 0.41 0.43 0.44 0.46 0.49 0.53 0.57 0.62 0.67 0.76 0.76 0.76 0.79 0.83 0.94 0.92 0.96 0.94 1.01 1.07 1.13 1.13 1.17 1.27 1.43 1.51 1.57 1.48 1.36 1.31 1.26 1.22 1.18 1.14 1.11 1.06 1.01 1.00 1.01 1.02 1.05 1.04 1.01 1.06 1.13 1.16 1.16 1.19 1.21 1.19 1.19 1.23 1.28 1.30 1.35
0.39 0.39 0.37 0.39 0.37 0.37 0.36 0.31 0.35 0.36 0.32 0.29 0.33 0.32 0.31 0.29 0.29 0.29 0.27 0.27 0.25 0.30 0.32 0.34 0.33 0.28 0.28 0.33 0.38 0.41 0.41 0.41 0.41 0.43 0.46 0.49 0.58 0.64 0.64 0.65 0.69 0.76 0.79 0.81 0.83 0.88 0.92 0.96 0.97 0.95 1.04 1.10 1.10 1.12 1.17 1.27 1.47 1.58 1.52 1.47 1.38 1.33 1.26 1.22 1.17 1.13 1.09 1.00 0.99 0.99 1.01 1.05 1.06 1.05 1.06 1.12 1.15 1.21 1.22 1.21 1.24 1.24 1.24 1.27 1.31 1.33
0.35 0.33 0.35 0.34 0.34 0.33 0.31 0.34 0.36 0.35 0.29 0.27 0.29 0.31 0.29 0.29 0.30 0.31 0.30 0.29 0.30 0.28 0.25 0.31 0.34 0.28 0.29 0.38 0.43 0.42 0.39 0.41 0.45 0.47 0.52 0.55 0.64 0.67 0.68 0.70 0.73 0.73 0.81 0.84 0.85 0.84 0.86 0.93 0.96 0.95 1.02 1.07 1.11 1.13 1.11 1.19 1.31 1.49 1.61 1.51 1.48 1.39 1.32 1.28 1.22 1.15 1.09 1.05 1.02 1.01 1.01 1.01 1.08 1.12 1.13 1.18 1.18 1.19 1.22 1.21 1.27 1.28 1.26 1.27 1.29 1.32
0.33 0.35 0.36 0.35 0.33 0.30 0.36 0.37 0.34 0.31 0.27 0.31 0.32 0.31 0.32 0.32 0.33 0.32 0.29 0.28 0.26 0.23 0.21 0.29 0.34 0.27 0.31 0.35 0.38 0.41 0.39 0.38 0.40 0.46 0.56 0.60 0.68 0.67 0.69 0.71 0.75 0.76 0.81 0.88 0.91 0.85 0.82 0.87 0.85 0.92 1.00 1.02 1.05 1.12 1.14 1.20 1.36 1.44 1.52 1.55 1.56 1.40 1.37 1.33 1.27 1.21 1.12 1.07 1.05 1.03 1.02 1.00 1.04 1.11 1.15 1.18 1.16 1.16 1.20 1.19 1.23 1.27 1.26 1.25 1.25 1.27
0.38 0.42 0.42 0.39 0.36 0.38 0.37 0.37 0.33 0.33 0.33 0.34 0.33 0.30 0.30 0.29 0.29 0.30 0.30 0.27 0.27 0.24 0.26 0.32 0.33 0.33 0.27 0.32 0.37 0.37 0.42 0.40 0.41 0.46 0.56 0.67 0.71 0.68 0.68 0.69 0.72 0.73 0.80 0.81 0.88 0.84 0.79 0.82 0.81 0.85 0.95 1.04 1.08 1.11 1.17 1.21 1.29 1.43 1.41 1.47 1.48 1.51 1.42 1.36 1.31 1.27 1.18 1.11 1.07 1.04 1.03 1.01 1.02 1.07 1.10 1.11 1.13 1.14 1.14 1.13 1.18 1.22 1.25 1.28 1.24 1.24
0.38 0.35 0.35 0.42 0.43 0.42 0.39 0.33 0.33 0.34 0.33 0.30 0.27 0.24 0.24 0.25 0.28 0.26 0.28 0.31 0.24 0.21 0.28 0.31 0.31 0.33 0.23 0.31 0.36 0.43 0.52 0.49 0.48 0.53 0.57 0.59 0.61 0.61 0.65 0.68 0.69 0.74 0.77 0.82 0.86 0.82 0.80 0.68 0.61 0.62 0.78 0.93 1.02 1.11 1.17 1.22 1.28 1.33 1.42 1.45 1.44 1.46 1.47 1.42 1.37 1.32 1.27 1.21 1.13 1.07 1.07 1.05 1.05 1.08 1.09 1.09 1.08 1.09 1.07 1.09 1.12 1.20 1.25 1.26 1.25 1.25
0.30 0.32 0.34 0.36 0.40 0.36 0.33 0.29 0.28 0.28 0.27 0.24 0.23 0.25 0.20 0.21 0.23 0.21 0.24 0.18 0.19 0.19 0.28 0.31 0.31 0.26 0.26 0.30 0.34 0.38 0.48 0.54 0.54 0.58 0.57 0.56 0.57 0.58 0.60 0.63 0.67 0.75 0.76 0.79 0.86 0.92 0.92 0.82 0.69 0.61 0.53 0.59 0.74 0.89 1.06 1.17 1.23 1.26 1.31 1.35 1.36 1.43 1.46 1.48 1.45 1.43 1.35 1.31 1.22 1.13 1.09 1.10 1.12 1.10 1.12 1.11 1.11 1.13 1.10 1.10 1.11 1.13 1.15 1.22 1.21 1.22
0.26 0.30 0.31 0.32 0.35 0.38 0.35 0.24 0.22 0.22 0.22 0.22 0.22 0.22 0.20 0.19 0.17 0.16 0.20 0.22 0.23 0.27 0.31 0.28 0.29 0.23 0.27 0.28 0.33 0.45 0.56 0.60 0.60 0.59 0.60 0.58 0.57 0.59 0.64 0.64 0.64 0.67 0.69 0.71 0.82 0.90 0.93 0.86 0.83 0.77 0.68 0.60 0.57 0.67 0.81 0.94 1.06 1.17 1.24 1.33 1.33 1.38 1.50 1.61 1.64 1.57 1.47 1.41 1.35 1.28 1.17 1.15 1.17 1.14 1.13 1.14 1.14 1.17 1.16 1.17 1.14 1.12 1.13 1.17 1.21 1.24
0.16 0.25 0.32 0.34 0.32 0.37 0.33 0.28 0.27 0.24 0.23 0.20 0.25 0.25 0.22 0.22 0.20 0.16 0.17 0.16 0.17 0.18 0.20 0.24 0.19 0.18 0.19 0.28 0.36 0.48 0.55 0.60 0.62 0.62 0.62 0.63 0.63 0.63 0.65 0.65 0.65 0.65 0.66 0.68 0.69 0.74 0.82 0.89 0.85 0.83 0.81 0.78 0.71 0.66 0.70 0.81 0.91 1.02 1.12 1.26 1.34 1.34 1.41 1.47 1.52 1.56 1.58 1.56 1.46 1.41 1.33 1.25 1.22 1.20 1.18 1.18 1.20 1.23 1.22 1.22 1.20 1.17 1.18 1.20 1.25 1.26
0.23 0.21 0.29 0.37 0.35 0.33 0.29 0.32 0.30 0.27 0.20 0.25 0.25 0.26 0.23 0.23 0.26 0.19 0.20 0.19 0.17 0.17 0.16 0.20 0.21 0.24 0.27 0.36 0.50 0.53 0.54 0.62 0.65 0.62 0.64 0.63 0.62 0.63 0.63 0.63 0.63 0.65 0.67 0.68 0.68 0.70 0.70 0.70 0.72 0.75 0.84 0.87 0.86 0.84 0.80 0.77 0.85 0.92 1.07 1.16 1.21 1.31 1.34 1.34 1.38 1.47 1.52 1.55 1.58 1.58 1.43 1.39 1.32 1.29 1.27 1.24 1.24 1.25 1.29 1.27 1.23 1.19 1.19 1.25 1.30 1.32
0.26 0.24 0.35 0.36 0.35 0.31 0.33 0.33 0.30 0.29 0.16 0.21 0.20 0.17 0.22 0.28 0.24 0.20 0.19 0.20 0.20 0.18 0.16 0.24 0.24 0.28 0.32 0.36 0.49 0.51 0.56 0.58 0.60 0.58 0.62 0.64 0.62 0.62 0.61 0.61 0.64 0.66 0.64 0.64 0.64 0.64 0.65 0.66 0.68 0.69 0.75 0.83 0.85 0.84 0.86 0.89 0.85 0.90 1.00 1.08 1.11 1.17 1.18 1.21 1.30 1.34 1.40 1.43 1.48 1.48 1.55 1.45 1.39 1.35 1.31 1.26 1.23 1.24 1.27 1.30 1.28 1.23 1.23 1.30 1.35 1.34
0.26 0.26 0.31 0.29 0.26 0.31 0.35 0.34 0.28 0.29 0.31 0.29 0.21 0.26 0.29 0.28 0.26 0.21 0.17 0.19 0.18 0.15 0.16 0.22 0.21 0.23 0.24 0.24 0.47 0.47 0.47 0.49 0.53 0.55 0.57 0.55 0.56 0.56 0.58 0.59 0.61 0.63 0.64 0.64 0.64 0.64 0.63 0.63 0.65 0.66 0.66 0.69 0.77 0.82 0.84 0.89 0.94 0.93 1.05 1.10 1.10 1.11 1.10 1.16 1.25 1.31 1.35 1.39 1.42 1.46 1.50 1.53 1.55 1.47 1.44 1.35 1.29 1.28 1.25 1.25 1.28 1.26 1.23 1.29 1.37 1.35
0.31 0.22 0.27 0.31 0.29 0.34 0.36 0.30 0.27 0.33 0.36 0.30 0.28 0.31 0.22 0.21 0.18 0.23 0.20 0.14 0.15 0.15 0.15 0.19 0.22 0.23 0.24 0.24 0.40 0.40 0.41 0.46 0.50 0.51 0.53 0.54 0.54 0.54 0.55 0.56 0.58 0.61 0.61 0.61 0.60 0.59 0.60 0.60 0.62 0.64 0.64 0.69 0.71 0.71 0.74 0.85 0.91 0.93 1.00 1.08 1.08 1.08 1.08 1.08 1.17 1.30 1.38 1.44 1.43 1.47 1.50 1.52 1.51 1.53 1.59 1.48 1.40 1.36 1.30 1.26 1.26 1.26 1.25 1.32 1.39 1.38
0.32 0.24 0.27 0.35 0.29 0.33 0.29 0.26 0.22 0.29 0.33 0.35 0.34 0.29 0.29 0.24 0.21 0.20 0.22 0.23 0.21 0.16 0.17 0.17 0.19 0.19 0.26 0.26 0.29 0.38 0.40 0.42 0.41 0.45 0.47 0.48 0.50 0.50 0.50 0.52 0.53 0.55 0.56 0.55 0.54 0.53 0.55 0.57 0.58 0.61 0.63 0.64 0.63 0.64 0.70 0.74 0.76 0.82 0.94 1.05 1.10 1.09 1.01 1.02 1.08 1.19 1.29 1.40 1.44 1.40 1.46 1.48 1.53 1.48 1.46 1.55 1.54 1.38 1.35 1.34 1.31 1.27 1.26 1.33 1.40 1.39
0.32 0.39 0.23 0.28 0.33 0.27 0.21 0.28 0.27 0.29 0.26 0.26 0.26 0.24 0.25 0.25 0.28 0.26 0.26 0.24 0.23 0.21 0.20 0.18 0.15 0.19 0.27 0.29 0.30 0.37 0.36 0.41 0.41 0.41 0.42 0.43 0.45 0.45 0.46 0.46 0.47 0.48 0.48 0.50 0.51 0.50 0.50 0.52 0.53 0.53 0.55 0.57 0.62 0.66 0.65 0.64 0.68 0.75 0.85 0.90 1.01 1.03 1.03 0.99 1.02 1.06 1.14 1.29 1.38 1.39 1.38 1.40 1.51 1.54 1.48 1.44 1.46 1.48 1.54 1.44 1.42 1.34 1.34 1.39 1.39 1.40
0.33 0.33 0.25 0.25 0.23 0.23 0.25 0.31 0.34 0.33 0.30 0.27 0.25 0.23 0.27 0.27 0.25 0.23 0.22 0.30 0.28 0.24 0.21 0.20 0.16 0.17 0.26 0.29 0.27 0.33 0.34 0.37 0.37 0.39 0.39 0.40 0.42 0.42 0.43 0.44 0.44 0.44 0.44 0.43 0.44 0.46 0.49 0.50 0.49 0.47 0.45 0.47 0.49 0.53 0.59 0.64 0.64 0.67 0.74 0.82 0.95 1.01 1.05 1.07 1.01 1.01 1.04 1.14 1.25 1.34 1.39 1.37 1.39 1.52 1.52 1.48 1.43 1.38 1.34 1.37 1.45 1.44 1.40 1.37 1.42 1.44
0.36 0.33 0.27 0.21 0.23 0.25 0.30 0.32 0.34 0.33 0.32 0.31 0.30 0.28 0.31 0.30 0.29 0.24 0.19 0.22 0.26 0.26 0.27 0.23 0.19 0.15 0.23 0.27 0.25 0.33 0.33 0.35 0.35 0.36 0.36 0.36 0.38 0.39 0.39 0.39 0.41 0.41 0.40 0.40 0.40 0.39 0.39 0.44 0.45 0.44 0.44 0.42 0.42 0.42 0.48 0.56 0.64 0.62 0.65 0.76 0.81 0.90 0.99 1.08 1.07 1.04 1.02 1.07 1.18 1.24 1.37 1.42 1.38 1.36 1.47 1.49 1.47 1.41 1.38 1.38 1.43 1.40 1.36 1.43 1.45 1.46
0.38 0.28 0.24 0.25 0.28 0.29 0.29 0.31 0.32 0.32 0.32 0.33 0.36 0.35 0.32 0.29 0.30 0.27 0.26 0.26 0.21 0.21 0.21 0.20 0.17 0.16 0.24 0.27 0.26 0.31 0.37 0.35 0.36 0.37 0.36 0.37 0.38 0.38 0.37 0.37 0.36 0.36 0.35 0.35 0.34 0.35 0.35 0.34 0.37 0.40 0.40 0.39 0.38 0.39 0.40 0.44 0.49 0.57 0.59 0.64 0.73 0.76 0.88 1.03 1.09 1.06 1.03 1.06 1.15 1.23 1.29 1.35 1.40 1.35 1.31 1.38 1.49 1.45 1.42 1.42 1.42 1.43 1.39 1.42 1.51 1.48
0.26 0.29 0.26 0.21 0.20 0.22 0.24 0.26 0.27 0.34 0.35 0.33 0.32 0.33 0.33 0.32 0.30 0.28 0.27 0.26 0.21 0.19 0.20 0.19 0.14 0.16 0.22 0.28 0.28 0.28 0.29 0.30 0.32 0.37 0.37 0.35 0.35 0.35 0.35 0.35 0.34 0.32 0.30 0.29 0.29 0.27 0.26 0.33 0.36 0.39 0.36 0.34 0.37 0.36 0.36 0.37 0.39 0.42 0.49 0.57 0.62 0.70 0.76 0.91 1.07 1.09 1.10 1.13 1.12 1.20 1.27 1.28 1.34 1.39 1.38 1.29 1.41 1.47 1.45 1.43 1.44 1.47 1.44 1.37 1.35 1.50
0.28 0.26 0.25 0.20 0.17 0.15 0.16 0.17 0.21 0.28 0.31 0.31 0.32 0.31 0.31 0.29 0.27 0.25 0.20 0.21 0.18 0.18 0.19 0.17 0.17 0.20 0.23 0.26 0.27 0.27 0.28 0.29 0.30 0.31 0.34 0.32 0.33 0.32 0.32 0.31 0.29 0.28 0.26 0.24 0.23 0.21 0.19 0.22 0.32 0.34 0.30 0.28 0.29 0.33 0.34 0.33 0.33 0.37 0.39 0.44 0.50 0.55 0.68 0.76 0.97 1.07 1.11 1.17 1.08 1.05 1.21 1.26 1.31 1.39 1.41 1.38 1.35 1.44 1.48 1.48 1.47 1.48 1.48 1.43 1.37 1.43
0.29 0.31 0.30 0.27 0.24 0.22 0.23 0.25 0.31 0.32 0.28 0.24 0.26 0.26 0.26 0.27 0.27 0.26 0.24 0.21 0.18 0.19 0.18 0.18 0.19 0.19 0.21 0.25 0.27 0.28 0.28 0.27 0.27 0.27 0.28 0.26 0.26 0.27 0.25 0.24 0.23 0.23 0.22 0.20 0.18 0.18 0.17 0.17 0.24 0.29 0.32 0.31 0.24 0.23 0.26 0.31 0.32 0.35 0.38 0.41 0.47 0.51 0.59 0.75 0.87 1.00 1.07 1.08 1.06 1.00 1.08 1.20 1.26 1.28 1.35 1.37 1.36 1.44 1.52 1.53 1.53 1.52 1.49 1.49 1.44 1.41
0.32 0.28 0.30 0.31 0.31 0.31 0.33 0.31 0.32 0.30 0.25 0.25 0.25 0.25 0.27 0.26 0.26 0.24 0.21 0.18 0.23 0.22 0.16 0.19 0.23 0.24 0.24 0.26 0.26 0.26 0.26 0.26 0.25 0.24 0.24 0.26 0.26 0.25 0.22 0.21 0.21 0.21 0.20 0.19 0.17 0.18 0.17 0.18 0.22 0.26 0.25 0.26 0.26 0.21 0.22 0.29 0.32 0.33 0.37 0.39 0.44 0.48 0.53 0.68 0.86 0.94 0.99 1.02 1.02 1.00 1.09 1.17 1.25 1.29 1.34 1.38 1.38 1.38 1.49 1.56 1.56 1.53 1.53 1.51 1.46 1.42
0.35 0.30 0.34 0.33 0.30 0.30 0.29 0.28 0.30 0.30 0.30 0.29 0.26 0.25 0.24 0.26 0.27 0.25 0.23 0.25 0.26 0.22 0.19 0.23 0.24 0.23 0.24 0.27 0.26 0.27 0.27 0.26 0.23 0.22 0.23 0.23 0.24 0.25 0.23 0.21 0.20 0.19 0.18 0.16 0.16 0.17 0.19 0.20 0.22 0.25 0.26 0.26 0.27 0.25 0.22 0.24 0.29 0.33 0.34 0.36 0.43 0.48 0.51 0.62 0.80 0.85 0.89 0.96 0.98 0.96 1.02 1.08 1.19 1.26 1.31 1.34 1.36 1.37 1.44 1.51 1.54 1.55 1.55 1.51 1.47 1.45
0.38 0.32 0.32 0.31 0.29 0.30 0.31 0.30 0.29 0.27 0.25 0.25 0.26 0.26 0.27 0.27 0.27 0.26 0.25 0.26 0.26 0.25 0.26 0.25 0.25 0.25 0.26 0.26 0.26 0.24 0.24 0.24 0.23 0.24 0.23 0.21 0.21 0.21 0.21 0.21 0.22 0.21 0.19 0.17 0.18 0.18 0.20 0.23 0.25 0.25 0.26 0.27 0.28 0.26 0.23 0.23 0.28 0.31 0.33 0.35 0.40 0.46 0.52 0.58 0.73 0.84 0.88 0.92 0.98 0.99 0.96 0.99 1.08 1.20 1.26 1.28 1.29 1.35 1.40 1.46 1.48 1.45 1.46 1.50 1.45 1.46
0.37 0.31 0.34 0.32 0.29 0.26 0.28 0.28 0.28 0.27 0.27 0.25 0.26 0.27 0.26 0.26 0.26 0.27 0.27 0.26 0.27 0.26 0.27 0.26 0.24 0.21 0.23 0.24 0.23 0.25 0.25 0.24 0.21 0.19 0.20 0.21 0.21 0.21 0.22 0.22 0.21 0.22 0.22 0.21 0.21 0.22 0.24 0.26 0.28 0.28 0.27 0.27 0.28 0.27 0.26 0.26 0.26 0.29 0.30 0.31 0.35 0.44 0.52 0.57 0.63 0.76 0.83 0.89 0.99 1.01 0.94 0.95 1.01 1.14 1.19 1.22 1.25 1.34 1.36 1.41 1.46 1.44 1.43 1.49 1.49 1.36
0.39 0.33 0.36 0.33 0.26 0.24 0.29 0.28 0.27 0.27 0.26 0.25 0.24 0.24 0.23 0.23 0.23 0.26 0.27 0.30 0.27 0.24 0.24 0.22 0.19 0.17 0.19 0.22 0.23 0.23 0.21 0.19 0.19 0.20 0.21 0.21 0.21 0.23 0.23 0.24 0.25 0.25 0.24 0.24 0.25 0.26 0.29 0.31 0.31 0.33 0.30 0.29 0.29 0.29 0.28 0.26 0.27 0.27 0.29 0.31 0.36 0.43 0.50 0.53 0.58 0.72 0.78 0.89 1.00 1.02 0.94 0.89 0.90 1.02 1.14 1.19 1.20 1.23 1.33 1.38 1.42 1.42 1.39 1.41 1.38 1.37
0.37 0.34 0.30 0.29 0.25 0.22 0.26 0.27 0.27 0.27 0.26 0.22 0.21 0.25 0.28 0.31 0.30 0.30 0.29 0.28 0.26 0.25 0.21 0.17 0.16 0.20 0.21 0.21 0.19 0.19 0.20 0.21 0.21 0.21 0.21 0.22 0.23 0.22 0.24 0.25 0.25 0.26 0.26 0.25 0.25 0.27 0.30 0.32 0.34 0.36 0.37 0.34 0.33 0.32 0.32 0.32 0.30 0.31 0.32 0.32 0.37 0.42 0.47 0.51 0.57 0.68 0.76 0.88 0.94 1.01 0.97 0.90 0.86 0.96 1.03 1.10 1.20 1.27 1.33 1.39 1.38 1.38 1.39 1.36 1.40 1.36
0.36 0.34 0.30 0.32 0.25 0.23 0.27 0.28 0.28 0.23 0.18 0.19 0.31 0.35 0.32 0.27 0.26 0.23 0.21 0.22 0.24 0.24 0.21 0.20 0.17 0.17 0.18 0.20 0.20 0.20 0.21 0.21 0.21 0.23 0.25 0.25 0.24 0.25 0.25 0.26 0.26 0.27 0.28 0.28 0.27 0.31 0.34 0.36 0.37 0.40 0.42 0.41 0.40 0.39 0.39 0.35 0.33 0.32 0.33 0.32 0.34 0.39 0.47 0.52 0.58 0.66 0.74 0.84 0.93 0.96 0.99 0.99 0.92 0.87 0.91 1.03 1.10 1.27 1.27 1.30 1.31 1.31 1.32 1.33 1.33 1.27
0.34 0.34 0.32 0.33 0.28 0.26 0.29 0.27 0.22 0.17 0.18 0.28 0.33 0.31 0.29 0.27 0.25 0.23 0.23 0.23 0.22 0.20 0.18 0.15 0.15 0.18 0.20 0.21 0.21 0.21 0.22 0.23 0.24 0.22 0.22 0.24 0.25 0.26 0.26 0.26 0.26 0.27 0.29 0.29 0.32 0.34 0.36 0.38 0.40 0.41 0.43 0.44 0.46 0.48 0.47 0.42 0.38 0.37 0.34 0.33 0.32 0.37 0.46 0.53 0.59 0.67 0.73 0.82 0.94 0.98 0.98 0.97 0.93 0.86 0.81 0.89 1.00 1.02 1.22 1.23 1.21 1.23 1.26 1.27 1.29 1.29
0.33 0.33 0.32 0.30 0.29 0.28 0.25 0.23 0.18 0.17 0.27 0.30 0.31 0.29 0.30 0.29 0.28 0.25 0.21 0.21 0.20 0.17 0.15 0.14 0.17 0.21 0.21 0.22 0.24 0.21 0.21 0.23 0.24 0.23 0.23 0.26 0.27 0.27 0.27 0.28 0.29 0.30 0.31 0.31 0.33 0.36 0.38 0.38 0.39 0.40 0.41 0.45 0.48 0.50 0.51 0.49 0.43 0.39 0.36 0.34 0.34 0.38 0.47 0.55 0.60 0.67 0.73 0.82 0.91 0.98 0.98 0.95 0.88 0.80 0.73 0.78 0.92 0.95 0.98 1.10 1.18 1.17 1.21 1.23 1.26 1.30
0.37 0.36 0.35 0.30 0.32 0.24 0.25 0.23 0.22 0.26 0.26 0.27 0.27 0.30 0.30 0.26 0.25 0.22 0.17 0.17 0.19 0.16 0.17 0.20 0.22 0.22 0.22 0.22 0.22 0.23 0.25 0.26 0.25 0.23 0.26 0.30 0.31 0.32 0.33 0.34 0.35 0.36 0.37 0.38 0.37 0.36 0.37 0.39 0.40 0.41 0.43 0.46 0.48 0.46 0.44 0.49 0.46 0.40 0.38 0.35 0.36 0.39 0.47 0.54 0.59 0.68 0.75 0.83 0.90 0.99 0.98 0.91 0.87 0.84 0.77 0.77 0.77 0.77 0.74 0.78 0.87 1.06 1.08 1.15 1.18 1.18
0.41 0.35 0.37 0.31 0.28 0.30 0.26 0.24 0.23 0.22 0.20 0.23 0.29 0.29 0.31 0.30 0.28 0.26 0.21 0.16 0.19 0.20 0.23 0.24 0.21 0.21 0.22 0.23 0.24 0.26 0.28 0.26 0.23 0.23 0.28 0.32 0.35 0.36 0.39 0.40 0.40 0.41 0.41 0.41 0.42 0.42 0.40 0.39 0.40 0.43 0.44 0.43 0.44 0.44 0.44 0.48 0.49 0.44 0.38 0.35 0.36 0.40 0.46 0.52 0.58 0.65 0.72 0.78 0.90 0.99 0.98 0.93 0.85 0.84 0.79 0.83 0.76 0.70 0.71 0.69 0.71 0.77 0.86 0.89 0.93 1.00
0.43 0.43 0.40 0.34 0.30 0.30 0.27 0.24 0.23 0.21 0.23 0.27 0.29 0.31 0.30 0.29 0.29 0.28 0.21 0.15 0.18 0.21 0.25 0.27 0.24 0.25 0.25 0.26 0.26 0.28 0.27 0.24 0.23 0.26 0.32 0.35 0.37 0.39 0.39 0.40 0.41 0.43 0.42 0.43 0.44 0.44 0.43 0.41 0.41 0.42 0.46 0.46 0.44 0.46 0.49 0.53 0.52 0.45 0.39 0.37 0.38 0.41 0.44 0.52 0.60 0.64 0.71 0.76 0.89 1.00 1.03 1.00 0.90 0.85 0.84 0.81 0.75 0.71 0.65 0.61 0.57 0.61 0.72 0.75 0.85 0.85
0.41 0.40 0.38 0.33 0.30 0.30 0.29 0.26 0.24 0.26 0.25 0.28 0.30 0.30 0.29 0.31 0.30 0.24 0.14 0.11 0.17 0.26 0.25 0.25 0.25 0.26 0.27 0.27 0.29 0.29 0.26 0.24 0.25 0.30 0.37 0.39 0.41 0.42 0.42 0.42 0.41 0.42 0.43 0.45 0.45 0.48 0.48 0.48 0.45 0.43 0.44 0.44 0.47 0.51 0.51 0.53 0.51 0.46 0.41 0.39 0.40 0.40 0.44 0.54 0.63 0.67 0.73 0.79 0.87 0.99 1.03 0.97 0.91 0.86 0.82 0.74 0.73 0.73 0.70 0.63 0.57 0.59 0.63 0.66 0.70 0.69
0.36 0.37 0.36 0.31 0.32 0.32 0.31 0.29 0.29 0.29 0.31 0.31 0.31 0.32 0.32 0.32 0.26 0.16 0.11 0.16 0.25 0.25 0.25 0.25 0.24 0.26 0.28 0.29 0.30 0.27 0.30 0.34 0.36 0.39 0.42 0.43 0.43 0.43 0.45 0.46 0.47 0.47 0.46 0.47 0.48 0.49 0.50 0.48 0.47 0.45 0.44 0.45 0.45 0.45 0.46 0.51 0.52 0.46 0.43 0.41 0.40 0.41 0.45 0.55 0.67 0.72 0.75 0.81 0.85 0.95 0.97 0.91 0.92 0.86 0.78 0.72 0.71 0.73 0.74 0.72 0.67 0.65 0.64 0.63 0.63 0.62
0.38 0.37 0.36 0.36 0.33 0.31 0.30 0.28 0.26 0.26 0.32 0.33 0.31 0.32 0.32 0.25 0.16 0.14 0.21 0.26 0.25 0.24 0.26 0.28 0.29 0.30 0.32 0.32 0.33 0.34 0.36 0.39 0.41 0.42 0.42 0.42 0.44 0.47 0.47 0.47 0.48 0.52 0.54 0.53 0.52 0.51 0.51 0.50 0.48 0.48 0.48 0.48 0.48 0.46 0.47 0.51 0.51 0.47 0.44 0.41 0.40 0.44 0.48 0.58 0.69 0.73 0.76 0.79 0.84 0.89 0.92 0.93 0.94 0.90 0.82 0.76 0.72 0.69 0.71 0.73 0.71 0.69 0.68 0.64 0.59 0.54
0.35 0.33 0.31 0.31 0.33 0.31 0.29 0.26 0.24 0.21 0.29 0.32 0.31 0.28 0.28 0.20 0.21 0.25 0.26 0.25 0.27 0.28 0.30 0.31 0.31 0.31 0.33 0.34 0.36 0.38 0.39 0.40 0.42 0.43 0.44 0.46 0.49 0.50 0.50 0.50 0.51 0.53 0.53 0.52 0.52 0.53 0.53 0.51 0.50 0.49 0.48 0.49 0.49 0.47 0.47 0.51 0.50 0.47 0.44 0.42 0.44 0.49 0.51 0.61 0.69 0.70 0.74 0.77 0.82 0.88 0.87 0.88 0.87 0.82 0.80 0.77 0.73 0.67 0.65 0.66 0.70 0.67 0.68 0.66 0.62 0.60
0.38 0.32 0.31 0.31 0.32 0.26 0.25 0.23 0.24 0.28 0.30 0.33 0.29 0.22 0.25 0.26 0.28 0.28 0.28 0.26 0.29 0.30 0.31 0.32 0.33 0.36 0.39 0.40 0.40 0.41 0.42 0.43 0.44 0.45 0.48 0.50 0.52 0.53 0.54 0.55 0.55 0.54 0.53 0.55 0.56 0.55 0.53 0.51 0.50 0.50 0.50 0.50 0.50 0.49 0.48 0.49 0.50 0.47 0.44 0.44 0.48 0.51 0.54 0.62 0.67 0.70 0.72 0.76 0.82 0.87 0.87 0.87 0.83 0.78 0.75 0.74 0.74 0.72 0.69 0.70 0.68 0.66 0.66 0.65 0.63 0.62
0.38 0.35 0.35 0.30 0.32 0.28 0.26 0.28 0.30 0.32 0.31 0.31 0.29 0.27 0.27 0.29 0.31 0.32 0.31 0.31 0.30 0.31 0.34 0.34 0.36 0.40 0.43 0.44 0.44 0.44 0.44 0.45 0.46 0.48 0.49 0.51 0.53 0.54 0.54 0.53 0.54 0.54 0.54 0.55 0.55 0.56 0.54 0.52 0.50 0.49 0.48 0.50 0.48 0.46 0.46 0.50 0.51 0.47 0.45 0.48 0.49 0.51 0.55 0.63 0.67 0.68 0.70 0.73 0.82 0.86 0.91 0.91 0.81 0.78 0.74 0.70 0.70 0.72 0.72 0.67 0.68 0.68 0.69 0.68 0.63 0.64
0.41 0.40 0.41 0.36 0.32 0.33 0.31 0.30 0.29 0.28 0.27 0.26 0.27 0.30 0.30 0.31 0.32 0.34 0.34 0.33 0.34 0.35 0.38 0.40 0.43 0.44 0.46 0.48 0.46 0.45 0.46 0.48 0.49 0.48 0.51 0.52 0.54 0.55 0.57 0.55 0.53 0.55 0.58 0.57 0.56 0.56 0.56 0.53 0.51 0.49 0.47 0.48 0.49 0.47 0.46 0.46 0.50 0.47 0.49 0.51 0.50 0.52 0.57 0.63 0.67 0.68 0.70 0.74 0.79 0.86 0.90 0.81 0.81 0.78 0.72 0.69 0.69 0.69 0.67 0.67 0.65 0.64 0.64 0.64 0.63 0.63
0.40 0.40 0.38 0.34 0.36 0.31 0.25 0.30 0.30 0.31 0.33 0.32 0.30 0.31 0.34 0.35 0.35 0.36 0.35 0.36 0.38 0.41 0.43 0.47 0.48 0.49 0.49 0.50 0.50 0.49 0.50 0.52 0.51 0.51 0.53 0.53 0.54 0.58 0.57 0.56 0.53 0.54 0.56 0.56 0.57 0.57 0.54 0.53 0.50 0.49 0.49 0.49 0.50 0.48 0.47 0.46 0.49 0.50 0.52 0.52 0.49 0.53 0.58 0.62 0.66 0.69 0.70 0.73 0.77 0.83 0.85 0.78 0.75 0.71 0.70 0.70 0.71 0.67 0.64 0.65 0.69 0.69 0.65 0.62 0.61 0.62
0.34 0.40 0.35 0.35 0.36 0.33 0.30 0.30 0.29 0.31 0.34 0.33 0.34 0.34 0.35 0.36 0.37 0.38 0.40 0.43 0.45 0.48 0.49 0.50 0.53 0.51 0.53 0.52 0.53 0.53 0.52 0.52 0.51 0.52 0.52 0.52 0.55 0.57 0.56 0.55 0.52 0.52 0.55 0.57 0.57 0.56 0.54 0.52 0.50 0.50 0.49 0.50 0.52 0.49 0.48 0.47 0.48 0.52 0.53 0.52 0.50 0.55 0.59 0.60 0.64 0.67 0.67 0.67 0.70 0.75 0.78 0.70 0.71 0.71 0.66 0.66 0.64 0.66 0.68 0.70 0.69 0.70 0.68 0.63 0.59 0.61
0.39 0.40 0.33 0.37 0.34 0.35 0.35 0.31 0.33 0.36 0.36 0.35 0.36 0.37 0.38 0.37 0.38 0.39 0.44 0.47 0.50 0.51 0.52 0.52 0.55 0.55 0.56 0.54 0.54 0.54 0.52 0.52 0.55 0.55 0.54 0.53 0.55 0.56 0.57 0.54 0.52 0.52 0.53 0.53 0.54 0.55 0.52 0.52 0.51 0.51 0.53 0.54 0.53 0.50 0.48 0.47 0.49 0.53 0.53 0.52 0.51 0.56 0.59 0.58 0.63 0.64 0.65 0.67 0.65 0.60 0.62 0.64 0.68 0.67 0.68 0.65 0.64 0.66 0.68 0.70 0.67 0.64 0.66 0.64 0.64 0.61
0.40 0.36 0.37 0.34 0.29 0.26 0.26 0.31 0.36 0.28 0.26 0.29 0.32 0.35 0.37 0.40 0.42 0.44 0.47 0.49 0.50 0.50 0.49 0.48 0.48 0.52 0.54 0.54 0.53 0.53 0.52 0.53 0.56 0.57 0.55 0.54 0.55 0.57 0.56 0.53 0.53 0.53 0.52 0.52 0.52 0.53 0.53 0.53 0.53 0.53 0.53 0.53 0.52 0.51 0.48 0.46 0.48 0.54 0.54 0.53 0.53 0.57 0.59 0.57 0.61 0.63 0.63 0.62 0.58 0.55 0.57 0.57 0.60 0.62 0.59 0.57 0.58 0.57 0.58 0.58 0.59 0.61 0.60 0.69 0.69 0.65
0.37 0.37 0.34 0.29 0.28 0.28 0.32 0.36 0.36 0.35 0.33 0.34 0.36 0.40 0.43 0.46 0.48 0.48 0.48 0.47 0.48 0.49 0.50 0.48 0.45 0.45 0.47 0.51 0.55 0.55 0.56 0.56 0.56 0.59 0.59 0.57 0.57 0.59 0.57 0.53 0.51 0.51 0.50 0.50 0.49 0.50 0.51 0.52 0.54 0.54 0.53 0.52 0.52 0.50 0.48 0.46 0.48 0.54 0.55 0.54 0.53 0.57 0.60 0.57 0.58 0.61 0.63 0.61 0.59 0.59 0.58 0.56 0.54 0.53 0.52 0.52 0.51 0.51 0.51 0.51 0.54 0.60 0.60 0.63 0.66 0.63
Wind_Speed
7 9 10 9 10 11 10 11 14 15 15 16 16 15 15 14 13 13 14 14 14 14 15 15 15 17 17 17 17 17 17 16 16 15 14 13 12 11 10 8 8 9 10 12 14 16 18 18 17 16 16 17 15 14 14 15 14 13 13 13 14 13 11 10 9 9 9 9 8 7 7 7 7 7 8 8 9 9 9 10 11 12 12 13 13 13
8 10 11 10 10 11 10 12 15 15 15 15 15 14 13 13 13 14 14 14 14 14 16 18 19 19 17 16 17 16 16 15 15 15 14 13 11 9 8 7 9 11 13 14 15 17 19 19 17 15 16 16 16 15 15 15 15 14 14 14 14 14 13 12 11 10 10 10 9 8 8 8 8 8 8 8 8 8 8 9 10 11 12 12 13 13
10 11 12 11 10 12 12 13 15 14 15 14 13 13 13 12 13 14 14 14 15 16 17 19 20 18 17 16 16 15 15 14 12 12 12 11 9 7 8 8 9 12 14 15 16 18 20 19 16 15 16 16 17 17 16 16 16 16 15 14 15 15 14 14 13 12 12 11 11 10 9 9 9 9 8 8 8 8 8 9 9 10 11 12 12 13
12 11 12 11 10 13 14 14 15 14 14 13 13 14 13 13 14 14 14 16 17 17 19 20 19 17 16 15 13 13 14 12 11 11 10 10 8 6 7 9 11 13 15 17 18 19 20 19 17 16 17 17 18 20 18 16 16 16 16 16 16 16 16 15 15 14 13 12 12 11 10 10 10 9 9 9 8 8 9 9 9 10 10 11 12 12
12 11 12 12 11 13 14 14 16 14 13 14 14 13 12 14 16 17 18 20 19 18 18 19 17 15 14 13 12 13 13 12 11 11 9 8 6 4 8 11 12 13 15 17 18 19 20 19 17 16 16 18 19 21 20 17 16 16 17 17 17 16 16 17 17 16 15 14 13 12 11 11 11 10 9 9 9 9 9 9 9 10 10 10 11 12
13 13 12 13 13 13 14 14 15 15 14 14 14 12 14 18 19 20 21 21 19 17 16 16 15 13 13 14 14 13 12 11 10 10 9 7 5 5 8 11 12 12 14 16 18 18 19 19 19 18 17 18 19 20 20 19 18 17 17 18 18 17 17 18 18 18 17 16 15 14 13 12 12 11 11 10 10 9 10 10 10 10 10 10 11 12
12 13 12 13 13 12 13 14 15 16 15 14 14 16 18 20 21 21 22 20 18 17 16 15 15 14 15 15 15 13 11 11 11 11 10 7 6 7 8 11 12 13 13 15 17 18 19 19 19 20 19 19 19 20 20 20 21 19 18 19 19 19 18 18 19 19 19 18 17 16 15 15 14 13 12 12 11 11 11 10 10 10 10 10 11 11
12 14 14 14 14 12 13 15 15 17 16 15 17 20 21 21 21 21 20 18 17 17 16 15 15 15 15 15 14 12 11 10 10 10 8 6 7 8 10 12 14 15 15 16 17 18 19 19 20 21 21 20 21 21 21 21 21 22 21 20 20 20 20 20 20 21 20 20 19 18 18 17 16 15 14 13 13 12 12 11 10 10 11 11 11 11
14 15 15 15 15 13 14 14 16 18 17 17 19 19 20 20 20 19 18 17 16 16 15 14 14 14 14 13 12 10 10 9 8 7 7 8 9 10 12 15 16 16 17 17 17 18 19 20 20 21 21 22 22 22 22 22 21 23 23 21 21 21 22 21 22 22 22 22 21 20 20 19 18 16 15 14 14 13 12 11 11 11 11 11 11 11
15 15 14 14 14 12 12 15 17 17 16 17 18 18 19 19 19 18 17 17 17 15 15 15 14 13 13 12 11 10 10 11 10 9 8 9 10 12 14 17 17 17 18 18 19 19 20 20 21 21 22 23 24 24 24 23 22 22 23 22 22 23 24 24 24 24 24 24 23 22 22 21 20 18 17 16 15 14 13 12 12 11 11 12 12 12
15 14 12 12 10 10 13 16 16 16 17 18 17 17 18 18 16 16 15 15 14 13 13 14 13 13 13 11 11 10 10 12 12 10 9 10 12 13 15 17 18 18 19 19 19 20 21 21 21 22 23 24 24 24 24 24 24 23 23 24 25 25 26 26 26 26 26 26 25 24 24 23 22 20 19 18 17 15 14 13 13 12 12 12 12 12
14 10 8 8 8 10 13 14 15 15 16 16 15 16 16 15 14 14 13 12 11 11 12 12 13 14 12 10 11 11 12 13 12 11 11 13 15 16 16 17 18 18 19 20 21 21 21 22 23 24 24 25 25 24 24 25 25 25 25 25 26 27 28 29 29 29 28 28 27 26 26 25 24 23 21 20 18 17 16 15 14 13 13 12 12 13
12 9 9 8 7 10 12 13 15 14 14 14 14 15 15 14 13 13 13 12 12 12 11 13 16 16 13 12 13 12 12 13 12 13 14 15 17 18 17 17 18 18 20 21 22 23 23 23 24 25 25 25 25 25 25 25 26 27 27 27 28 29 30 31 31 31 30 30 29 28 27 27 26 25 23 22 20 19 18 16 15 15 14 13 13 13
10 10 10 8 8 12 13 14 14 14 15 15 14 14 15 15 14 13 13 13 13 14 15 18 20 17 14 15 14 12 12 12 12 13 15 16 17 17 17 18 19 20 21 22 23 24 24 23 24 25 26 26 26 26 26 26 27 28 29 30 30 30 31 31 31 31 31 31 31 30 29 28 27 27 25 24 22 21 20 18 17 16 15 14 14 14
10 9 9 9 12 15 16 15 15 16 17 15 14 15 15 14 14 14 15 15 16 18 20 21 19 16 16 16 14 12 11 13 13 14 15 16 17 18 18 20 21 21 23 24 24 24 25 25 25 26 27 27 27 28 28 28 29 30 31 31 31 31 30 30 31 31 32 32 32 31 31 30 29 28 27 26 24 23 21 20 19 18 17 16 15 14
12 11 10 12 15 17 16 15 16 17 16 14 14 15 14 14 15 16 18 19 21 21 20 19 17 16 17 15 13 12 12 12 14 16 17 17 18 19 20 22 23 23 24 25 25 26 27 27 27 28 28 28 29 29 29 29 30 31 32 32 32 32 31 30 30 31 32 34 34 32 31 31 30 29 28 27 26 25 23 21 20 19 18 17 16 15
13 14 15 17 17 17 16 16 17 17 16 15 16 15 15 17 18 18 19 19 20 20 18 18 18 18 17 13 11 13 13 14 16 18 18 19 20 21 22 24 25 25 26 27 27 28 29 30 31 31 30 30 30 30 30 30 32 33 33 33 34 33 31 31 31 32 32 34 35 35 33 31 31 30 30 29 28 27 25 24 22 20 20 19 18 17
15 17 18 19 18 17 18 19 20 20 18 16 16 16 17 19 18 17 18 18 19 20 19 19 20 20 18 14 13 15 15 15 19 20 19 21 23 24 25 26 27 28 28 29 29 30 31 31 32 34 34 34 33 33 32 32 32 33 33 33 34 33 32 32 32 32 32 32 33 36 36 33 32 31 31 30 30 28 27 26 24 22 21 20 19 18
17 19 18 17 18 18 18 19 20 19 16 15 16 17 18 19 18 17 18 18 20 21 20 21 22 21 19 16 15 17 17 18 20 22 23 24 26 27 28 29 30 31 31 32 33 33 34 34 35 36 37 36 36 35 35 34 34 34 34 34 34 33 33 32 33 32 32 31 31 33 36 36 34 33 32 30 30 29 28 27 25 24 23 21 21 20
17 18 18 17 18 20 19 18 18 16 14 15 17 19 19 19 20 20 19 19 20 21 21 23 23 20 17 16 16 17 19 21 22 24 25 26 28 29 30 31 33 33 34 35 37 37 38 38 38 38 37 37 37 36 35 35 35 35 36 35 35 35 34 32 32 32 32 32 32 31 33 35 35 35 34 32 30 29 29 28 27 25 24 23 22 21
17 17 18 18 19 20 19 17 17 18 18 18 19 20 20 19 20 20 20 20 20 20 20 21 24 21 16 16 19 19 21 24 25 26 28 29 31 32 33 33 34 35 37 38 39 40 40 40 40 40 40 40 39 38 37 37 37 37 37 36 36 36 35 34 33 32 32 32 32 31 31 33 35 35 36 35 33 31 29 27 26 26 25 25 23 22
17 17 19 21 20 20 19 19 20 20 20 19 20 20 19 18 19 20 20 21 21 21 21 22 25 26 21 21 24 23 23 26 27 29 31 33 34 35 35 36 37 38 40 41 41 43 43 43 43 44 43 43 43 42 41 39 38 38 38 37 37 36 36 35 35 34 34 33 33 32 32 32 34 35 36 36 35 33 31 29 27 26 26 26 25 24
17 19 21 22 21 21 22 22 22 21 20 19 19 19 18 18 19 20 20 22 23 25 25 25 28 30 26 26 27 24 22 25 26 29 33 34 35 36 37 39 40 42 43 44 44 46 47 47 47 47 46 46 45 45 43 42 41 39 38 38 38 38 37 37 36 35 35 35 34 33 33 33 34 35 35 35 36 35 33 31 29 27 27 27 27 26
18 19 20 22 22 22 23 22 21 19 18 18 19 19 19 20 21 22 23 25 27 28 28 27 30 32 29 27 27 25 23 25 27 30 34 36 36 38 40 42 44 45 46 47 47 47 48 49 50 50 49 49 48 48 47 46 45 44 42 40 40 40 39 38 36 36 35 35 34 34 34 33 33 34 34 34 35 36 34 33 31 30 28 28 28 27
19 18 19 22 22 20 20 18 16 15 17 19 21 21 22 24 25 26 27 27 29 31 31 29 30 33 32 30 30 30 30 32 33 33 36 38 40 42 44 45 46 47 47 48 48 48 48 49 50 51 52 52 51 50 50 50 49 48 46 44 43 42 41 38 37 36 34 33 33 33 32 32 31 31 33 33 33 35 36 34 33 32 30 29 29 28
20 20 19 20 20 20 19 17 17 18 21 23 24 25 26 28 28 29 29 29 30 32 34 32 32 35 35 33 33 34 35 37 39 38 39 41 43 45 46 46 46 47 47 48 47 47 48 48 49 50 50 49 49 48 48 49 49 49 48 46 45 44 43 40 38 36 34 32 32 31 31 31 31 30 31 32 31 32 34 35 34 33 31 29 29 28
21 21 20 21 22 22 23 23 23 25 26 27 28 29 30 30 30 30 29 30 31 32 35 35 34 37 37 35 36 37 38 39 40 41 42 43 43 44 45 45 44 44 45 45 45 45 45 45 46 46 45 44 44 45 44 44 45 46 47 46 45 44 43 42 39 36 35 33 32 31 30 31 32 31 31 31 32 31 32 34 35 33 32 30 28 28
21 21 22 23 25 26 27 28 28 28 29 30 31 32 31 31 31 31 30 32 31 32 34 35 35 37 38 37 38 39 39 39 40 41 42 42 43 44 44 44 44 44 44 44 43 44 44 43 43 43 43 42 41 42 42 42 41 42 44 44 44 43 42 41 40 38 36 35 33 31 29 29 30 31 31 31 32 32 32 33 33 33 32 31 29 28
21 22 23 25 27 28 28 29 29 29 30 31 32 33 33 33 32 32 33 34 32 32 35 37 38 39 38 37 38 38 39 40 41 42 42 43 45 45 44 44 45 44 44 44 44 43 43 42 41 41 41 40 39 39 40 40 40 40 40 41 42 42 41 40 39 38 37 36 35 33 30 29 28 30 31 31 32 33 32 32 33 33 32 32 30 28
22 23 24 26 28 29 29 29 30 31 32 33 33 33 33 33 33 33 35 35 34 36 37 38 40 40 37 37 38 39 39 40 41 42 43 44 44 44 43 44 44 43 44 44 43 42 41 41 40 40 39 39 38 38 39 39 38 38 39 39 39 41 41 40 38 37 36 35 35 35 32 29 28 28 29 30 31 32 32 32 32 33 32 31 30 29
23 25 25 26 28 29 29 30 31 31 32 32 32 33 33 34 35 35 35 34 34 35 36 37 39 38 36 37 38 38 39 40 41 42 43 43 43 43 43 43 43 43 43 43 42 41 40 39 39 39 39 38 38 38 38 38 38 37 37 38 37 38 40 40 38 37 36 34 33 34 33 29 27 26 27 28 28 29 31 32 31 31 31 30 30 29
25 26 27 27 28 29 29 29 31 31 31 33 34 34 34 34 33 33 31 31 32 34 35 36 37 36 35 36 38 39 40 41 42 43 43 42 42 42 42 43 43 42 42 42 41 40 39 38 38 38 38 37 37 37 37 38 37 37 36 36 36 36 38 38 38 37 36 33 31 31 31 30 28 26 25 25 26 26 28 30 30 30 30 29 29 28
26 27 27 27 29 30 29 30 31 31 31 31 31 30 29 30 31 31 31 32 33 33 33 34 35 36 37 38 39 40 40 41 42 43 42 41 42 42 42 42 42 42 42 41 39 39 38 38 38 37 37 38 38 37 37 37 37 36 35 35 34 35 36 36 37 36 35 33 32 31 30 30 29 27 24 22 23 24 24 25 26 27 27 27 27 26
27 28 27 27 29 30 30 30 31 31 30 28 25 26 28 30 32 32 32 32 32 31 32 34 36 37 38 38 39 39 40 41 42 43 41 41 42 42 43 43 42 41 41 39 38 38 38 38 38 38 38 39 38 38 37 36 36 35 34 34 33 33 34 34 35 35 34 33 32 32 31 29 28 27 24 21 20 21 21 21 22 24 24 23 24 25
27 27 27 27 29 30 30 29 29 29 27 24 25 28 30 31 31 31 32 31 31 33 34 36 37 38 38 39 39 39 40 40 42 44 43 43 43 43 42 41 40 40 39 38 38 39 39 39 39 39 39 39 38 37 36 35 34 34 33 32 31 31 32 33 32 32 32 31 30 30 30 30 29 27 26 23 20 17 16 17 19 21 21 21 21 22
27 26 27 27 28 29 29 28 27 28 27 28 30 31 29 29 29 30 31 31 31 33 35 36 37 37 37 37 37 38 39 41 44 45 44 43 43 42 40 38 38 38 38 38 38 38 38 39 39 39 38 37 36 36 35 35 34 33 32 31 30 29 31 32 31 30 29 28 28 29 30 30 30 29 28 28 25 20 17 15 15 17 19 20 20 20
27 26 27 27 28 29 29 30 30 31 32 31 29 27 26 28 29 29 31 32 32 33 34 35 35 36 36 36 38 39 41 43 44 44 43 43 42 40 39 38 38 39 39 40 40 39 39 38 38 37 36 35 35 36 36 35 34 32 31 30 28 28 29 31 30 30 29 27 26 27 29 29 29 29 29 29 28 26 22 19 16 16 18 18 19 20
27 27 27 28 28 28 29 30 30 30 29 27 24 24 26 28 28 28 30 32 32 32 32 32 33 35 36 37 40 42 43 44 44 43 43 42 41 40 40 40 41 41 42 41 41 40 39 38 38 37 35 35 36 36 35 34 33 31 30 28 26 26 28 30 30 29 29 28 26 26 28 28 28 28 28 29 29 27 26 23 20 18 17 18 19 19
28 28 28 29 29 28 28 29 28 28 28 27 26 26 27 27 26 27 30 31 29 29 31 32 34 36 37 39 41 42 42 43 44 43 43 43 42 42 42 42 42 42 42 41 39 39 39 38 37 36 35 35 34 33 33 32 31 29 28 26 25 25 26 28 29 28 29 28 26 26 27 28 28 28 27 28 28 27 26 25 23 20 18 18 19 19
30 29 29 30 30 29 28 29 28 28 29 28 28 28 27 26 26 28 30 30 29 30 33 35 37 39 40 41 42 41 41 43 44 44 43 43 43 42 42 42 42 41 41 40 37 36 37 38 37 35 34 34 33 32 32 31 29 28 26 25 24 24 25 26 27 28 29 28 26 25 26 27 27 27 27 27 27 27 26 26 25 23 20 18 18 18
30 29 30 30 30 29 28 29 29 29 29 28 28 26 25 25 27 28 29 30 31 34 36 37 39 40 41 42 42 41 42 44 44 44 43 42 42 42 41 42 42 40 39 38 37 36 36 37 36 35 34 33 32 32 31 30 28 26 25 24 23 23 24 25 26 25 27 28 27 26 27 27 27 27 28 27 27 27 27 27 26 25 23 20 19 18
29 29 29 29 29 27 27 29 30 29 27 26 26 25 25 26 27 28 30 32 35 37 38 39 40 41 41 42 42 42 44 44 44 43 43 42 41 41 41 41 40 40 39 40 39 38 36 35 34 33 33 32 31 30 29 27 25 24 23 23 22 22 22 24 25 23 24 27 27 27 28 28 28 27 27 27 28 27 27 28 28 27 26 23 21 19
28 28 28 28 27 26 27 28 29 28 24 23 24 25 25 26 28 31 34 35 36 37 39 39 39 39 40 42 43 44 45 44 43 42 42 41 41 42 42 40 40 42 43 42 41 38 36 35 34 32 32 31 30 28 27 25 23 22 22 22 21 20 20 23 24 23 22 23 24 26 28 28 28 27 25 25 26 27 27 27 28 28 28 25 23 22
28 28 28 27 26 26 27 27 26 25 24 24 26 26 27 29 32 34 35 36 36 37 38 38 38 39 41 43 45 45 44 43 42 42 41 40 41 42 42 40 41 43 43 40 38 36 34 34 32 30 30 30 28 26 25 22 20 19 20 20 19 18 18 21 23 22 22 22 22 23 25 26 26 26 24 23 24 26 26 26 26 27 27 27 25 24
27 27 28 28 27 27 28 28 27 27 28 28 28 29 30 32 33 33 35 35 35 36 36 37 39 41 43 44 45 44 42 41 41 41 40 41 42 43 42 41 42 42 39 36 34 33 32 31 29 28 28 27 25 24 23 20 18 18 18 18 17 16 17 19 21 21 21 22 21 21 22 24 24 24 23 22 22 23 25 26 26 26 26 26 26 26
28 28 29 29 28 28 29 30 29 29 29 29 29 29 31 32 32 32 33 34 34 35 36 38 40 43 44 43 43 42 40 40 41 41 40 41 42 41 40 40 40 39 35 33 30 29 29 29 27 26 26 25 24 22 20 19 17 16 17 17 16 15 16 18 19 20 21 22 20 20 21 22 22 21 20 19 20 20 21 23 24 25 25 26 26 25
30 30 29 28 27 27 27 26 26 27 28 28 29 30 30 30 31 31 32 33 35 37 39 40 42 43 42 42 41 40 40 40 40 40 40 40 40 39 38 38 37 35 32 30 29 28 27 27 26 25 24 24 22 20 18 18 16 15 15 15 14 14 15 18 19 19 20 21 20 20 20 20 20 20 19 19 19 19 20 21 22 22 23 24 25 25
28 28 28 27 27 27 27 27 27 28 28 28 28 28 29 30 31 32 33 34 36 38 40 41 42 41 40 40 39 39 39 39 38 38 39 38 37 36 36 35 35 32 30 28 27 26 25 25 24 23 22 22 20 17 17 17 14 13 14 14 13 13 16 20 20 19 19 19 18 19 20 20 19 20 20 19 19 19 20 21 21 22 22 22 22 22
28 27 26 26 27 27 27 27 27 26 26 26 27 29 29 30 32 33 34 35 36 38 40 41 40 40 39 38 38 38 38 38 37 36 38 37 36 34 33 33 32 30 28 26 25 25 24 23 23 21 20 20 18 16 16 15 13 12 13 13 12 12 17 23 22 19 19 19 17 17 17 18 20 21 20 18 19 19 19 18 19 20 21 21 22 21
29 28 27 27 27 26 25 24 24 24 25 26 28 29 29 30 32 33 33 35 36 38 40 40 40 39 37 37 36 36 37 37 36 35 36 35 34 32 32 31 31 29 26 25 24 23 22 22 21 20 20 19 17 16 15 14 12 11 12 11 10 11 18 24 23 20 19 18 18 17 16 16 18 19 19 17 17 18 18 18 18 18 19 20 21 21
31 30 28 27 26 25 24 24 24 24 25 26 27 28 29 29 30 31 32 34 36 38 38 38 38 36 35 34 34 34 34 35 35 35 35 34 32 31 31 30 29 28 26 25 23 22 21 20 19 18 18 17 16 15 14 13 12 10 10 10 9 10 18 25 25 22 19 17 17 16 16 16 16 17 18 17 16 16 16 17 18 19 19 19 20 21
Wind_Direction
296 309 310 304 311 317 320 321 317 316 316 315 313 309 307 308 309 310 311 316 320 315 310 311 314 312 308 308 307 305 303 299 297 295 293 298 302 305 312 312 311 319 323 324 325 326 326 323 314 304 296 287 279 274 264 261 263 263 263 261 260 260 259 260 258 256 258 264 273 277 279 280 280 279 274 269 269 269 266 259 253 252 250 249 249 247
299 304 306 299 311 328 325 318 316 311 308 308 308 305 303 305 311 313 312 316 323 320 314 315 316 313 308 307 310 308 305 300 297 295 291 292 296 307 319 314 308 316 320 321 323 324 324 323 316 305 302 295 285 280 270 262 262 261 261 260 257 256 255 257 256 254 254 258 266 272 274 276 278 279 277 275 272 272 271 264 258 255 251 251 252 249
296 299 299 297 312 324 314 310 313 310 304 300 299 301 301 303 309 311 311 315 322 323 316 312 311 309 306 304 305 308 308 302 299 300 296 291 292 304 317 314 309 314 318 317 319 322 323 322 316 306 303 299 288 281 272 262 260 259 259 259 256 254 253 254 255 254 254 255 260 266 271 273 276 278 277 279 277 274 273 268 262 257 254 253 252 250
294 302 306 309 313 313 310 309 309 306 304 300 299 301 302 308 310 311 320 322 318 314 309 307 303 303 307 306 303 309 315 312 304 305 303 297 297 303 316 319 317 315 317 318 317 320 323 320 314 307 304 300 291 284 276 265 259 258 257 256 255 253 252 252 253 254 254 254 257 262 267 271 274 278 278 280 280 274 271 269 265 260 258 255 251 249
294 300 312 316 312 309 311 311 308 305 306 308 305 300 302 313 314 311 316 317 313 308 307 307 304 305 312 310 309 313 315 314 309 306 307 304 300 311 321 318 316 317 318 323 324 324 327 324 318 313 309 305 297 290 285 275 263 258 256 254 252 252 251 251 252 252 252 253 253 257 262 266 270 274 274 276 276 272 269 266 264 261 259 256 251 249
291 297 307 309 306 305 307 308 306 307 309 309 307 308 312 316 314 310 310 311 310 309 312 315 310 308 311 308 309 310 306 309 314 311 310 310 297 297 323 325 322 321 319 325 330 329 330 328 324 320 314 308 301 297 293 284 272 261 256 253 250 250 250 250 251 250 251 252 251 252 255 257 261 265 267 269 269 269 269 266 263 261 259 256 253 250
295 297 297 301 304 303 304 305 306 311 314 306 305 313 314 311 308 306 308 308 308 308 311 310 303 304 311 309 309 308 302 303 310 308 301 305 308 301 320 332 329 324 319 322 329 331 329 327 325 321 316 311 306 302 299 291 280 269 259 252 249 249 249 250 250 249 249 250 249 249 251 253 255 259 262 264 266 268 271 271 265 260 258 256 254 253
305 302 297 306 313 309 304 304 310 317 313 302 304 309 307 306 306 305 307 306 302 303 305 301 296 303 311 311 311 309 306 305 307 308 300 308 325 316 316 324 325 323 319 318 323 328 327 325 324 322 318 314 310 305 301 295 286 275 265 255 249 248 249 250 250 249 249 248 248 248 249 251 253 256 259 261 264 267 270 272 268 261 257 254 254 254
305 302 301 307 307 304 304 308 315 315 306 302 305 304 304 303 301 300 300 298 296 297 303 306 301 303 310 316 321 315 309 311 314 315 313 313 313 308 310 315 317 319 320 320 322 325 325 323 322 320 317 315 311 307 303 298 290 280 271 262 255 251 250 250 250 249 249 248 248 247 247 250 252 254 257 259 263 265 266 268 268 264 258 254 254 254
298 295 299 305 300 300 310 315 315 311 304 305 303 299 301 298 295 299 298 296 298 297 303 309 302 300 308 315 321 314 304 305 310 309 308 311 312 309 308 310 311 313 316 318 319 322 323 321 320 318 317 315 312 308 304 299 294 286 278 271 264 257 252 250 249 249 250 249 247 247 246 247 249 252 254 256 259 261 261 263 265 265 261 256 254 253
296 287 289 303 302 303 313 315 313 310 309 310 306 303 305 304 303 306 303 300 301 300 304 307 305 305 305 309 317 316 310 307 306 305 301 303 311 314 311 311 311 310 310 311 313 318 320 319 319 318 316 314 312 308 304 300 296 290 283 275 268 263 256 252 249 248 248 248 247 247 247 246 247 249 251 252 254 255 257 259 261 264 264 260 256 253
307 293 293 308 310 311 311 313 315 314 316 318 315 312 313 313 312 309 309 310 305 303 307 312 320 319 308 311 320 316 313 312 306 302 301 301 306 311 313 315 315 313 313 312 313 315 316 315 317 317 315 313 311 308 304 301 297 292 286 278 272 266 259 254 250 247 246 247 248 247 247 247 246 247 249 250 251 250 252 255 257 260 263 263 258 254
308 301 310 311 319 325 313 314 321 318 321 321 316 319 319 315 316 316 315 313 305 302 311 319 324 321 306 308 320 318 313 312 305 299 299 300 304 307 311 313 314 314 316 315 315 314 312 311 313 315 314 313 310 307 304 300 296 292 287 281 275 269 263 258 252 248 245 245 247 247 247 247 246 246 247 248 249 250 250 252 253 255 258 260 258 254
307 306 317 307 315 330 318 315 321 319 321 319 314 318 316 311 316 316 312 310 306 304 311 317 317 314 305 304 314 319 317 314 309 305 304 304 305 305 308 310 311 314 316 316 315 313 310 308 308 310 311 310 309 306 302 299 297 293 289 284 280 277 273 268 262 257 251 247 245 246 247 247 246 246 247 248 248 249 249 249 251 253 255 257 258 256
310 307 325 316 308 317 316 314 317 316 315 312 312 311 308 313 318 312 310 311 309 306 308 311 311 309 308 309 309 306 309 313 311 309 308 306 306 305 306 308 309 310 313 314 313 313 312 307 305 306 306 305 305 304 301 298 296 295 292 289 287 286 284 279 273 267 262 255 250 247 246 246 246 245 245 247 247 247 248 248 249 251 253 255 257 257
302 294 315 321 311 311 314 313 313 315 311 309 314 309 305 317 316 307 305 304 304 305 306 307 305 304 308 317 320 308 306 314 314 312 310 307 307 308 308 308 308 308 310 311 311 312 313 311 307 305 303 302 301 300 298 296 295 295 293 292 291 289 288 285 279 274 270 263 256 253 250 247 245 244 244 245 246 246 246 246 247 249 251 253 255 256
299 293 302 311 310 309 310 310 309 308 305 307 309 303 307 314 309 303 303 302 302 302 303 305 304 305 307 315 327 320 310 309 311 313 314 313 313 311 309 309 309 308 309 310 309 308 309 309 308 307 305 303 301 299 296 294 294 294 293 292 292 290 288 285 282 279 277 270 261 256 255 253 248 245 243 244 244 245 244 245 246 247 249 251 252 252
301 298 300 305 306 306 307 307 305 299 293 296 299 301 310 310 303 300 301 303 303 299 301 304 303 307 309 306 316 318 308 303 307 311 312 312 312 309 307 307 307 307 307 308 308 306 305 305 305 306 306 304 303 301 298 295 294 294 293 291 291 290 288 285 282 280 279 276 266 257 255 256 254 248 244 243 242 243 243 243 244 245 247 248 249 249
302 298 298 301 301 306 310 306 304 300 290 287 294 302 307 306 303 302 300 302 303 301 302 301 298 302 302 301 313 317 309 306 307 308 308 308 307 306 306 305 305 305 305 305 305 303 302 301 302 303 303 303 302 301 299 297 296 295 293 291 289 290 289 286 282 280 277 276 271 262 256 255 255 252 249 245 242 241 241 241 242 244 245 246 247 246
299 296 295 299 302 307 308 302 301 305 302 298 300 302 303 302 301 300 297 299 301 301 302 302 302 302 298 303 318 321 314 311 308 306 304 304 304 303 303 303 303 303 303 303 302 301 300 299 299 300 300 301 301 299 298 297 296 295 294 291 288 288 289 286 283 280 277 274 271 267 260 256 253 252 251 249 247 244 241 239 240 242 244 244 245 244
297 294 294 299 303 304 302 298 299 303 303 301 301 302 302 301 300 298 297 296 298 299 300 301 301 300 298 305 315 316 312 309 308 306 302 302 303 303 302 302 301 301 301 301 300 299 299 297 297 298 297 298 298 298 297 296 295 294 293 291 288 287 286 285 283 280 277 273 269 267 263 257 253 251 250 250 248 248 246 241 240 241 242 243 243 242
299 296 296 298 301 300 298 298 300 299 299 301 301 300 300 300 299 298 296 296 297 298 299 299 297 296 298 303 306 306 304 304 306 305 303 303 303 303 302 302 300 299 299 298 297 297 296 296 295 295 294 294 294 294 294 294 293 292 291 290 288 287 286 284 282 279 277 273 270 266 263 259 255 252 249 247 246 247 247 244 243 243 243 243 242 240
302 296 294 295 295 296 296 296 294 292 294 299 300 298 297 299 301 299 298 299 298 296 298 297 293 294 300 302 301 301 302 304 306 305 303 303 303 303 302 302 301 300 299 298 297 296 295 295 294 292 292 291 290 290 289 289 288 287 287 287 287 286 286 284 281 280 277 273 270 266 263 260 256 252 249 246 244 244 243 242 242 244 245 245 243 240
304 297 295 297 297 297 297 295 291 287 289 295 300 299 297 300 303 301 300 301 298 295 296 295 291 295 301 302 300 300 300 304 308 308 306 304 303 303 302 302 301 300 300 299 298 297 296 296 295 293 292 291 289 287 286 284 284 282 282 283 284 285 285 283 281 280 277 273 269 266 264 261 257 253 251 248 243 241 241 240 240 242 244 246 245 242
303 299 300 301 301 302 303 302 297 291 293 298 302 300 297 300 302 300 299 298 295 294 294 292 291 296 300 300 299 299 298 300 304 306 305 304 303 302 302 302 301 301 301 300 299 299 298 297 296 295 294 293 291 288 285 283 282 280 279 278 279 280 281 281 279 278 276 272 269 267 264 262 257 252 249 248 245 241 239 239 240 241 243 245 245 243
299 296 296 297 298 300 302 303 303 301 299 299 299 298 298 300 300 299 298 296 294 294 293 291 292 296 299 300 300 299 299 299 300 301 301 301 302 303 303 302 301 301 301 301 301 301 300 299 298 298 297 296 294 291 286 283 281 279 277 276 275 275 275 276 276 276 274 271 269 267 264 259 256 254 250 248 246 242 238 237 239 240 241 243 243 241
296 293 290 287 289 292 294 296 300 301 298 297 297 297 297 297 297 297 295 293 294 296 294 292 294 297 298 300 300 299 300 299 299 300 300 302 304 305 303 302 302 302 302 303 303 302 302 301 301 301 300 299 298 296 291 286 282 278 275 274 273 271 271 271 271 272 271 269 268 266 263 258 256 255 252 249 246 243 240 237 238 239 239 239 240 239
293 290 289 287 287 289 292 294 296 296 294 294 295 295 296 295 295 293 292 292 294 294 293 295 298 298 299 300 300 300 301 301 301 302 303 303 304 304 303 303 303 304 303 304 304 303 303 303 302 303 302 301 300 299 296 292 286 281 276 273 271 269 268 266 266 267 267 266 266 264 261 258 256 253 252 249 246 244 242 239 237 238 238 236 237 239
292 290 290 291 290 291 292 293 294 294 293 293 294 294 294 294 293 292 291 292 293 291 293 298 298 297 298 301 301 302 303 302 303 304 305 304 303 302 303 304 304 304 303 304 304 304 304 303 303 303 302 301 299 299 299 296 291 286 280 274 269 267 266 264 262 263 264 263 262 261 259 257 256 253 251 249 246 244 243 240 237 237 237 235 234 236
292 292 292 293 292 292 293 293 293 292 292 292 292 293 294 294 293 293 293 293 292 291 293 296 295 296 300 302 303 303 303 304 304 304 303 303 303 303 304 304 304 304 303 304 304 304 304 303 303 303 302 301 300 300 301 299 295 290 285 278 269 265 264 262 259 260 262 262 259 257 256 254 254 254 252 248 246 244 242 240 238 236 237 236 233 232
292 292 294 295 293 293 293 292 292 292 292 294 295 295 296 295 294 294 293 294 294 294 296 298 297 299 302 303 303 304 304 304 304 303 302 303 304 304 304 303 304 304 303 304 304 304 303 303 303 302 302 302 302 301 301 300 298 294 288 281 272 264 262 261 259 257 258 260 258 253 250 248 249 252 251 247 245 244 241 240 238 235 235 235 232 230
291 292 294 293 292 294 295 295 295 296 296 296 296 296 295 295 296 296 297 298 299 300 301 300 300 301 303 304 303 303 303 303 303 303 304 304 303 303 303 303 303 303 303 303 303 302 302 301 302 302 302 303 302 301 300 300 299 296 290 283 273 264 261 260 258 255 254 256 257 251 246 244 244 245 247 245 243 244 242 239 236 233 231 231 229 228
288 290 292 291 291 294 296 296 298 299 297 296 297 298 298 298 299 300 299 299 300 301 300 300 300 301 303 303 302 302 303 303 303 304 304 304 304 303 303 302 302 302 303 303 303 302 302 301 302 302 302 303 302 301 300 299 299 298 293 286 275 264 259 258 256 253 251 252 253 250 245 241 238 237 240 241 240 239 237 233 230 228 227 227 227 226
285 286 287 288 289 292 295 297 297 296 294 295 299 301 301 301 301 300 300 300 301 301 299 299 300 302 303 303 303 303 303 302 303 305 305 305 304 304 303 302 301 302 302 303 303 303 302 302 302 301 301 302 302 301 301 298 298 298 294 288 278 265 257 255 253 252 251 250 250 248 243 237 232 230 230 232 232 231 229 228 225 223 223 225 225 222
283 284 285 286 287 290 294 295 294 293 294 296 299 300 301 302 302 301 300 301 301 301 299 300 301 302 303 302 302 302 303 304 305 306 306 305 304 303 302 302 302 301 301 302 303 302 302 301 301 300 300 301 301 301 300 298 298 298 294 288 280 267 256 251 250 251 251 248 246 243 239 233 229 226 224 223 222 219 218 221 222 220 219 219 218 216
281 283 284 285 286 289 291 290 288 292 296 297 298 300 301 302 303 302 300 300 301 301 301 301 302 302 302 302 302 304 305 306 306 306 306 305 304 304 303 303 303 302 302 302 302 301 301 301 301 300 300 301 300 300 299 298 299 298 293 288 281 268 256 249 246 248 248 244 242 239 235 231 229 227 224 221 219 217 215 215 216 215 214 214 212 211
279 282 284 285 285 287 288 287 288 292 295 297 298 300 302 302 303 303 301 301 302 302 301 301 301 303 304 304 305 306 307 306 306 306 307 306 305 304 303 303 303 302 302 302 301 300 299 300 301 300 300 300 299 299 298 296 298 298 293 287 280 268 256 248 243 243 244 242 239 235 232 230 228 225 222 220 219 220 220 219 219 216 213 213 213 213
277 280 282 284 285 286 287 289 291 292 294 297 298 299 302 303 303 302 301 302 303 302 302 303 305 308 309 308 308 309 308 307 306 307 307 306 305 304 303 303 302 301 301 301 300 299 299 299 299 299 298 299 298 298 297 295 296 297 292 285 278 267 257 250 242 238 239 240 237 233 231 229 225 221 219 218 218 220 221 221 222 221 218 217 218 219
276 280 282 283 285 287 286 287 290 291 293 297 297 298 301 302 304 305 303 303 305 306 307 309 309 309 310 309 310 310 309 307 306 307 308 307 305 304 303 302 302 301 300 300 299 298 298 298 298 298 298 298 298 298 297 295 296 296 290 283 277 268 258 250 241 235 234 235 235 233 229 226 223 218 216 216 216 219 221 223 223 223 221 221 223 222
276 281 283 282 283 284 283 285 289 290 292 295 295 297 300 302 304 304 301 302 308 310 310 310 308 308 309 310 310 310 308 307 307 308 308 307 305 305 304 303 303 301 301 300 299 298 298 298 297 297 297 298 298 298 297 296 295 293 288 282 276 267 257 248 241 236 232 230 233 231 224 221 221 217 213 213 214 216 220 222 223 223 222 221 221 220
277 280 281 282 282 283 282 285 289 291 293 295 295 297 300 301 300 298 297 303 309 309 309 309 309 309 310 310 310 309 308 307 307 307 307 306 306 306 305 304 303 302 302 301 299 299 299 297 294 295 297 298 298 297 296 295 293 290 286 281 275 267 257 245 239 236 231 228 230 228 220 218 219 216 213 215 215 216 219 221 222 223 222 221 221 221
276 278 280 281 282 284 284 286 290 292 294 296 295 295 296 297 296 296 300 305 307 307 308 309 309 310 310 310 309 309 308 308 308 308 308 307 306 306 306 306 305 304 303 300 297 297 298 296 293 293 296 297 298 297 296 294 291 288 284 280 273 268 258 244 236 234 231 228 227 223 218 218 217 215 214 216 217 218 219 220 221 222 223 223 223 224
277 278 280 281 282 285 285 285 288 290 292 295 296 296 295 295 297 300 303 305 306 308 309 309 309 310 311 311 311 311 310 309 308 308 308 308 307 307 306 307 306 304 301 296 293 294 296 295 291 291 294 296 297 297 296 292 289 286 284 281 274 267 256 241 232 231 231 227 221 216 216 216 214 213 214 215 216 217 217 218 220 221 223 224 225 226
277 277 279 281 282 284 284 284 286 289 292 294 296 296 296 297 299 301 303 304 306 308 309 309 310 311 312 312 312 311 310 309 308 309 309 309 308 307 307 307 305 304 301 295 291 291 293 292 289 289 291 292 293 294 293 289 286 285 284 283 276 265 251 237 229 227 226 221 216 214 215 213 211 212 213 213 214 216 216 217 219 220 222 225 226 226
277 278 280 281 281 283 284 285 286 288 290 291 292 294 296 298 299 302 304 305 307 308 309 310 310 312 313 313 312 311 310 309 309 309 310 309 309 308 308 307 307 306 303 298 293 292 292 291 290 290 290 291 292 293 290 285 282 281 283 284 278 263 244 229 224 222 218 215 211 209 207 205 204 206 207 209 213 215 215 217 219 220 222 224 226 227
275 277 280 281 283 284 285 284 283 285 287 290 293 295 297 299 301 303 305 306 307 309 310 310 311 312 313 312 311 310 310 309 309 310 310 310 309 308 308 309 309 307 304 300 297 296 293 290 290 290 290 290 291 290 287 283 278 275 280 284 278 261 236 220 217 216 211 208 206 204 203 201 200 201 204 207 211 213 215 216 218 220 223 224 225 226
274 276 277 279 281 283 284 284 285 286 289 292 295 296 298 300 303 305 307 308 309 310 311 312 312 312 312 311 310 309 309 309 310 311 312 312 311 310 310 310 311 308 303 299 297 296 293 289 288 289 290 291 290 287 284 282 275 271 277 282 276 257 229 212 210 209 205 203 203 203 203 201 200 204 208 210 212 214 215 215 216 218 221 223 224 224
277 279 278 277 278 279 281 284 286 287 289 292 296 298 300 302 305 307 308 309 311 312 313 314 314 313 311 311 310 309 309 310 310 311 312 314 314 313 313 313 313 310 304 299 296 294 292 289 288 288 288 289 288 283 282 281 272 266 273 278 273 252 223 208 205 204 202 202 202 200 201 202 204 207 209 211 213 214 214 215 216 217 218 220 222 224
277 279 277 277 278 279 281 284 287 289 291 294 296 299 301 304 307 309 311 312 313 314 315 315 316 314 312 311 310 310 310 311 310 310 312 314 314 313 315 316 316 312 307 301 297 294 291 289 288 285 284 286 285 279 279 278 268 263 270 274 270 248 218 206 204 204 205 208 207 203 205 211 212 210 210 213 215 214 213 213 215 217 218 219 220 222
273 274 274 275 276 277 281 286 290 291 291 293 297 301 304 307 310 312 314 316 316 317 318 318 318 316 314 313 313 312 311 312 312 311 312 314 314 313 315 318 317 315 311 305 299 295 291 290 288 284 282 285 282 275 274 273 263 258 266 271 269 244 216 205 204 206 208 212 212 210 211 213 212 212 214 216 218 218 219 219 218 218 218 218 218 218
270 271 272 273 274 276 282 287 290 290 291 294 298 302 306 310 313 315 317 319 320 321 322 322 320 319 318 317 317 316 314 315 315 313 313 314 314 313 314 316 317 316 314 309 302 296 292 290 287 282 280 280 275 268 269 268 258 252 259 267 268 243 217 208 206 207 209 212 213 214 215 214 212 214 217 217 217 220 224 223 221 220 219 219 218 218